[Date Prev][Date Next][Thread Prev][Thread Next] - [Date Index][Thread Index][Author Index]

2 Line ISS Keps 1-31



ISS
1 25544U 98067A   04031.53464120  .00016345  00000-0  15741-3 0  1063
2 25544  51.6298 306.4312 0007838 110.9761 249.4183 15.66663043296720


----
Via the sarex mailing list at AMSAT.ORG courtesy of AMSAT-NA.
To unsubscribe, send "unsubscribe sarex" to Majordomo@amsat.org



AMSAT Top AMSAT Home